Time,TemperatureF,DewpointF,PressureIn,WindDirection,WindDirectionDegrees,WindSpeedMPH,WindSpeedGustMPH,Humidity,HourlyPrecipIn,Conditions,Clouds,dailyrainin,SoftwareType,DateUTC
2013-10-03 00:01:00,62.8,62.2,29.95,SW,225,0.0,-999.0,98,-99.99,,,0.00,Acu-Link.com,2013-10-03 04:01:00,
2013-10-03 00:16:00,62.2,61.7,29.95,SSW,202,0.0,-999.0,98,-99.99,,,0.00,Acu-Link.com,2013-10-03 04:16:00,
2013-10-03 00:31:00,62.1,61.5,29.95,SW,225,0.0,-999.0,98,-99.99,,,0.00,Acu-Link.com,2013-10-03 04:31:00,
2013-10-03 00:46:00,61.5,60.9,29.96,SW,225,0.0,-999.0,98,-99.99,,,0.00,Acu-Link.com,2013-10-03 04:46:00,
2013-10-03 01:01:00,61.3,60.8,29.96,SSW,202,0.0,-999.0,98,-99.99,,,0.00,Acu-Link.com,2013-10-03 05:01:00,
2013-10-03 01:16:00,61.2,60.6,29.96,SW,225,0.0,-999.0,98,-99.99,,,0.00,Acu-Link.com,2013-10-03 05:16:00,
2013-10-03 01:31:00,61.0,60.4,29.96,WNW,292,0.0,-999.0,98,-99.99,,,0.00,Acu-Link.com,2013-10-03 05:31:00,
2013-10-03 01:46:00,60.6,60.1,29.97,SW,225,0.0,-999.0,98,-99.99,,,0.00,Acu-Link.com,2013-10-03 05:46:00,
2013-10-03 02:02:00,60.6,60.1,29.97,SSW,202,0.0,-999.0,98,-99.99,,,0.00,Acu-Link.com,2013-10-03 06:02:00,
2013-10-03 02:17:00,60.3,59.7,29.97,West,270,0.0,-999.0,98,-99.99,,,0.00,Acu-Link.com,2013-10-03 06:17:00,
2013-10-03 02:32:00,59.9,59.3,29.97,SW,225,0.0,-999.0,98,-99.99,,,0.00,Acu-Link.com,2013-10-03 06:32:00,
2013-10-03 02:47:00,59.5,59.0,29.98,SSE,157,0.0,-999.0,98,-99.99,,,0.00,Acu-Link.com,2013-10-03 06:47:00,
2013-10-03 03:03:00,59.5,59.0,29.98,West,270,0.0,-999.0,98,-99.99,,,0.00,Acu-Link.com,2013-10-03 07:03:00,
2013-10-03 03:18:00,59.0,58.4,29.98,SW,225,0.0,-999.0,98,-99.99,,,0.00,Acu-Link.com,2013-10-03 07:18:00,
2013-10-03 03:33:00,59.0,58.4,29.98,SSW,202,0.0,-999.0,98,-99.99,,,0.00,Acu-Link.com,2013-10-03 07:33:00,
2013-10-03 03:48:00,58.6,58.1,29.98,SSW,202,0.0,-999.0,98,-99.99,,,0.00,Acu-Link.com,2013-10-03 07:48:00,
2013-10-03 04:05:00,58.3,57.7,29.98,SSW,202,0.0,-999.0,98,-99.99,,,0.00,Acu-Link.com,2013-10-03 08:05:00,
2013-10-03 04:20:00,58.1,57.5,29.98,SW,225,0.0,-999.0,98,-99.99,,,0.00,Acu-Link.com,2013-10-03 08:20:00,
2013-10-03 04:35:00,57.7,57.2,29.98,WSW,247,0.0,-999.0,98,-99.99,,,0.00,Acu-Link.com,2013-10-03 08:35:00,
2013-10-03 04:50:00,57.6,57.0,29.98,West,270,0.0,-999.0,98,-99.99,,,0.00,Acu-Link.com,2013-10-03 08:50:00,
2013-10-03 05:05:00,57.4,56.8,29.98,South,180,0.0,-999.0,98,-99.99,,,0.00,Acu-Link.com,2013-10-03 09:05:00,
2013-10-03 05:20:00,57.0,56.5,29.99,SW,225,0.0,-999.0,98,-99.99,,,0.00,Acu-Link.com,2013-10-03 09:20:00,
2013-10-03 05:35:00,55.4,54.8,30.00,SW,225,0.0,-999.0,98,-99.99,,,0.00,Acu-Link.com,2013-10-03 09:35:00,
2013-10-03 05:51:00,55.0,54.5,30.01,SSW,202,0.0,-999.0,98,-99.99,,,0.00,Acu-Link.com,2013-10-03 09:51:00,
2013-10-03 06:06:00,54.9,54.3,30.02,South,180,0.0,-999.0,98,-99.99,,,0.00,Acu-Link.com,2013-10-03 10:06:00,
2013-10-03 06:21:00,54.5,53.9,30.02,South,180,0.0,-999.0,98,-99.99,,,0.00,Acu-Link.com,2013-10-03 10:21:00,
2013-10-03 06:36:00,54.1,53.6,30.03,South,180,0.0,-999.0,98,-99.99,,,0.00,Acu-Link.com,2013-10-03 10:36:00,
2013-10-03 06:51:00,54.0,53.4,30.03,South,180,0.0,-999.0,98,-99.99,,,0.00,Acu-Link.com,2013-10-03 10:51:00,
2013-10-03 07:07:00,53.8,53.2,30.03,West,270,0.0,-999.0,98,-99.99,,,0.00,Acu-Link.com,2013-10-03 11:07:00,
2013-10-03 07:22:00,53.8,53.2,30.04,WSW,247,0.0,-999.0,98,-99.99,,,0.00,Acu-Link.com,2013-10-03 11:22:00,
2013-10-03 07:37:00,54.0,53.4,30.04,SW,225,0.0,-999.0,98,-99.99,,,0.00,Acu-Link.com,2013-10-03 11:37:00,
2013-10-03 07:52:00,54.3,53.8,30.04,SW,225,0.0,-999.0,98,-99.99,,,0.00,Acu-Link.com,2013-10-03 11:52:00,
2013-10-03 08:07:00,55.6,55.0,30.05,SSW,202,0.0,-999.0,98,-99.99,,,0.00,Acu-Link.com,2013-10-03 12:07:00,
2013-10-03 08:22:00,56.7,56.1,30.05,SSW,202,0.0,-999.0,98,-99.99,,,0.00,Acu-Link.com,2013-10-03 12:22:00,
2013-10-03 08:38:00,57.7,57.2,30.05,SSW,202,0.0,-999.0,98,-99.99,,,0.00,Acu-Link.com,2013-10-03 12:38:00,
2013-10-03 08:53:00,58.8,58.3,30.06,SSW,202,0.0,-999.0,98,-99.99,,,0.00,Acu-Link.com,2013-10-03 12:53:00,
2013-10-03 09:08:00,60.1,59.5,30.06,SSW,202,0.0,-999.0,98,-99.99,,,0.00,Acu-Link.com,2013-10-03 13:08:00,
2013-10-03 09:23:00,61.3,60.8,30.07,SW,225,0.0,-999.0,98,-99.99,,,0.00,Acu-Link.com,2013-10-03 13:23:00,
2013-10-03 09:39:00,62.6,62.0,30.07,South,180,0.0,-999.0,98,-99.99,,,0.00,Acu-Link.com,2013-10-03 13:39:00,
2013-10-03 09:54:00,63.5,62.9,30.07,South,180,0.0,-999.0,98,-99.99,,,0.00,Acu-Link.com,2013-10-03 13:54:00,
2013-10-03 10:09:00,64.9,64.4,30.07,SSW,202,0.0,-999.0,98,-99.99,,,0.00,Acu-Link.com,2013-10-03 14:09:00,
2013-10-03 10:24:00,65.8,65.3,30.07,SSE,157,0.0,-999.0,98,-99.99,,,0.00,Acu-Link.com,2013-10-03 14:24:00,
2013-10-03 10:39:00,67.5,66.9,30.07,SSW,202,0.0,-999.0,98,-99.99,,,0.00,Acu-Link.com,2013-10-03 14:39:00,
2013-10-03 10:54:00,67.8,67.2,30.06,ESE,112,0.0,-999.0,98,-99.99,,,0.00,Acu-Link.com,2013-10-03 14:54:00,
2013-10-03 11:09:00,69.6,69.0,30.06,SSE,157,0.0,-999.0,98,-99.99,,,0.00,Acu-Link.com,2013-10-03 15:09:00,
2013-10-03 11:24:00,70.3,69.7,30.05,South,180,0.0,-999.0,98,-99.99,,,0.00,Acu-Link.com,2013-10-03 15:24:00,
2013-10-03 11:39:00,71.6,71.0,30.05,SSE,157,0.0,-999.0,98,-99.99,,,0.00,Acu-Link.com,2013-10-03 15:39:00,
2013-10-03 11:55:00,72.1,71.5,30.05,WNW,292,0.0,-999.0,98,-99.99,,,0.00,Acu-Link.com,2013-10-03 15:55:00,
2013-10-03 12:10:00,73.4,72.8,30.04,ESE,112,0.0,-999.0,98,-99.99,,,0.00,Acu-Link.com,2013-10-03 16:10:00,
2013-10-03 12:25:00,74.8,74.2,30.03,SSE,157,0.0,-999.0,98,-99.99,,,0.00,Acu-Link.com,2013-10-03 16:25:00,
2013-10-03 12:40:00,75.7,75.1,30.03,SSE,157,1.6,-999.0,98,-99.99,,,0.00,Acu-Link.com,2013-10-03 16:40:00,
2013-10-03 12:55:00,76.5,75.9,30.03,SE,135,0.0,-999.0,98,-99.99,,,0.00,Acu-Link.com,2013-10-03 16:55:00,
2013-10-03 13:11:00,75.0,74.4,30.02,SSW,202,0.0,-999.0,98,-99.99,,,0.00,Acu-Link.com,2013-10-03 17:11:00,
2013-10-03 13:26:00,75.4,74.8,30.01,South,180,0.0,-999.0,98,-99.99,,,0.00,Acu-Link.com,2013-10-03 17:26:00,
2013-10-03 13:41:00,76.1,75.5,30.00,WNW,292,0.0,-999.0,98,-99.99,,,0.00,Acu-Link.com,2013-10-03 17:41:00,
2013-10-03 13:56:00,75.4,74.8,30.00,SW,225,0.0,-999.0,98,-99.99,,,0.00,Acu-Link.com,2013-10-03 17:56:00,
2013-10-03 14:11:00,75.4,74.8,30.00,WSW,247,0.0,-999.0,98,-99.99,,,0.00,Acu-Link.com,2013-10-03 18:11:00,
2013-10-03 14:27:00,77.0,76.4,29.99,South,180,0.0,-999.0,98,-99.99,,,0.00,Acu-Link.com,2013-10-03 18:27:00,
2013-10-03 14:42:00,75.9,75.3,29.98,West,270,0.0,-999.0,98,-99.99,,,0.00,Acu-Link.com,2013-10-03 18:42:00,
2013-10-03 14:57:00,75.9,75.3,29.99,West,270,0.0,-999.0,98,-99.99,,,0.00,Acu-Link.com,2013-10-03 18:57:00,
2013-10-03 15:12:00,76.5,75.9,29.98,South,180,0.0,-999.0,98,-99.99,,,0.00,Acu-Link.com,2013-10-03 19:12:00,
2013-10-03 15:27:00,76.5,75.9,29.99,WNW,292,0.0,-999.0,98,-99.99,,,0.00,Acu-Link.com,2013-10-03 19:27:00,
2013-10-03 15:42:00,76.3,75.7,29.98,SSW,202,0.0,-999.0,98,-99.99,,,0.00,Acu-Link.com,2013-10-03 19:42:00,
2013-10-03 15:58:00,76.1,75.5,29.98,SW,225,0.0,-999.0,98,-99.99,,,0.00,Acu-Link.com,2013-10-03 19:58:00,
2013-10-03 16:13:00,76.3,75.7,29.98,SSW,202,0.0,-999.0,98,-99.99,,,0.00,Acu-Link.com,2013-10-03 20:13:00,
2013-10-03 16:28:00,75.7,75.1,29.98,SE,135,0.0,-999.0,98,-99.99,,,0.00,Acu-Link.com,2013-10-03 20:28:00,
2013-10-03 16:43:00,75.6,75.0,29.98,NNW,337,0.0,-999.0,98,-99.99,,,0.00,Acu-Link.com,2013-10-03 20:43:00,
2013-10-03 16:58:00,74.8,74.2,29.98,SW,225,0.0,-999.0,98,-99.99,,,0.00,Acu-Link.com,2013-10-03 20:58:00,
2013-10-03 17:14:00,74.1,73.5,29.97,WSW,247,0.0,-999.0,98,-99.99,,,0.00,Acu-Link.com,2013-10-03 21:14:00,
2013-10-03 17:29:00,73.9,73.3,29.98,WSW,247,0.0,-999.0,98,-99.99,,,0.00,Acu-Link.com,2013-10-03 21:29:00,
2013-10-03 17:44:00,73.0,72.4,29.99,SW,225,0.0,-999.0,98,-99.99,,,0.00,Acu-Link.com,2013-10-03 21:44:00,
2013-10-03 17:59:00,72.5,71.9,29.99,South,180,0.0,-999.0,98,-99.99,,,0.00,Acu-Link.com,2013-10-03 21:59:00,
2013-10-03 18:15:00,71.6,71.0,29.99,SSW,202,0.0,-999.0,98,-99.99,,,0.00,Acu-Link.com,2013-10-03 22:15:00,
2013-10-03 18:30:00,70.9,70.3,29.99,SW,225,0.0,-999.0,98,-99.99,,,0.00,Acu-Link.com,2013-10-03 22:30:00,
2013-10-03 18:45:00,70.0,69.4,29.99,SSW,202,0.0,-999.0,98,-99.99,,,0.00,Acu-Link.com,2013-10-03 22:45:00,
2013-10-03 19:00:00,69.4,68.8,29.99,WSW,247,0.0,-999.0,98,-99.99,,,0.00,Acu-Link.com,2013-10-03 23:00:00,
2013-10-03 19:15:00,68.9,68.3,30.00,SSW,202,0.0,-999.0,98,-99.99,,,0.00,Acu-Link.com,2013-10-03 23:15:00,
2013-10-03 19:30:00,68.2,67.6,29.99,SW,225,0.0,-999.0,98,-99.99,,,0.00,Acu-Link.com,2013-10-03 23:30:00,
2013-10-03 19:45:00,67.8,67.2,29.99,SW,225,0.0,-999.0,98,-99.99,,,0.00,Acu-Link.com,2013-10-03 23:45:00,
2013-10-03 20:01:00,67.3,66.7,29.99,SW,225,0.0,-999.0,98,-99.99,,,0.00,Acu-Link.com,2013-10-04 00:01:00,
2013-10-03 20:16:00,67.1,66.5,29.99,SW,225,0.0,-999.0,98,-99.99,,,0.00,Acu-Link.com,2013-10-04 00:16:00,
2013-10-03 20:31:00,66.4,65.8,30.00,SW,225,0.0,-999.0,98,-99.99,,,0.00,Acu-Link.com,2013-10-04 00:31:00,
2013-10-03 20:46:00,65.8,65.3,29.99,South,180,0.0,-999.0,98,-99.99,,,0.00,Acu-Link.com,2013-10-04 00:46:00,
2013-10-03 21:02:00,65.3,64.7,30.00,SSW,202,0.0,-999.0,98,-99.99,,,0.00,Acu-Link.com,2013-10-04 01:02:00,
2013-10-03 21:17:00,64.8,64.2,29.99,SW,225,0.0,-999.0,98,-99.99,,,0.00,Acu-Link.com,2013-10-04 01:17:00,
2013-10-03 21:32:00,64.2,63.6,30.00,SSW,202,0.0,-999.0,98,-99.99,,,0.00,Acu-Link.com,2013-10-04 01:32:00,
2013-10-03 21:47:00,63.9,63.3,30.00,SW,225,0.0,-999.0,98,-99.99,,,0.00,Acu-Link.com,2013-10-04 01:47:00,
2013-10-03 22:02:00,63.7,63.1,30.00,SSW,202,0.0,-999.0,98,-99.99,,,0.00,Acu-Link.com,2013-10-04 02:02:00,
2013-10-03 22:18:00,63.3,62.7,30.01,SW,225,0.0,-999.0,98,-99.99,,,0.00,Acu-Link.com,2013-10-04 02:18:00,
2013-10-03 22:33:00,63.0,62.4,30.01,South,180,0.0,-999.0,98,-99.99,,,0.00,Acu-Link.com,2013-10-04 02:33:00,
2013-10-03 22:48:00,62.8,62.2,30.01,SW,225,0.0,-999.0,98,-99.99,,,0.00,Acu-Link.com,2013-10-04 02:48:00,
2013-10-03 23:03:00,62.2,61.7,30.02,SSW,202,0.0,-999.0,98,-99.99,,,0.00,Acu-Link.com,2013-10-04 03:03:00,
2013-10-03 23:18:00,62.1,61.5,30.01,South,180,0.0,-999.0,98,-99.99,,,0.00,Acu-Link.com,2013-10-04 03:18:00,
2013-10-03 23:34:00,61.7,61.1,30.01,SW,225,0.0,-999.0,98,-99.99,,,0.00,Acu-Link.com,2013-10-04 03:34:00,
2013-10-03 23:49:00,61.7,61.1,30.02,SSW,202,0.0,-999.0,98,-99.99,,,0.00,Acu-Link.com,2013-10-04 03:49:00,